• In Österreich
  • Länderverzeichnis
  • Für 7 Tage
  • Wassertemperatur
  • Satellitenkarten
  • Wetterkarte
  • News
  • Widgets
  • user-avatar
    Anmelden

    Stündliche Wetter Lezhe

    Heute, 18 Juli, Mittwoch

    Zeit Temperatur Niederschläge Wind Luftdruck Luftfeuchtigkeit
    00:00 +20°C° 0,2 mm 2 m/S 734 mmHg 87%
    01:00 +19°C° 0,2 mm 2 m/S 734 mmHg 87%
    02:00 +19°C° 0 mm 2 m/S 734 mmHg 86%
    03:00 +19°C° 0 mm 2 m/S 734 mmHg 85%
    04:00 +19°C° 0 mm 2 m/S 734 mmHg 84%
    05:00 +20°C° 0 mm 2 m/S 734 mmHg 78%
    06:00 +23°C° 0 mm 2 m/S 734 mmHg 73%
    07:00 +24°C° 0 mm 2 m/S 734 mmHg 68%
    08:00 +26°C° 0 mm 2 m/S 734 mmHg 61%
    09:00 +27°C° 0 mm 2 m/S 735 mmHg 53%
    10:00 +29°C° 0 mm 2 m/S 735 mmHg 46%
    11:00 +29°C° 0 mm 3 m/S 735 mmHg 46%
    12:00 +30°C° 0 mm 3 m/S 735 mmHg 45%
    13:00 +30°C° 0 mm 4 m/S 734 mmHg 45%
    14:00 +30°C° 0 mm 4 m/S 734 mmHg 48%
    15:00 +29°C° 0 mm 4 m/S 734 mmHg 51%
    16:00 +29°C° 0 mm 4 m/S 734 mmHg 53%
    17:00 +27°C° 0,2 mm 4 m/S 734 mmHg 60%
    18:00 +26°C° 0,2 mm 4 m/S 734 mmHg 67%
    19:00 +24°C° 0,2 mm 3 m/S 735 mmHg 74%
    20:00 +22°C° 0 mm 3 m/S 735 mmHg 75%
    21:00 +21°C° 0 mm 3 m/S 735 mmHg 76%
    22:00 +20°C° 0 mm 3 m/S 736 mmHg 78%
    23:00 +20°C° 0 mm 2 m/S 735 mmHg 76%

    Morgen, 19 Juli, Donnerstag

    Zeit Temperatur Niederschläge Wind Luftdruck Luftfeuchtigkeit
    00:00 +20°C° 0 mm 2 m/S 735 mmHg 75%
    01:00 +19°C° 0 mm 2 m/S 735 mmHg 74%
    02:00 +19°C° 0 mm 2 m/S 735 mmHg 73%
    03:00 +19°C° 0 mm 2 m/S 735 mmHg 71%
    04:00 +19°C° 0 mm 2 m/S 735 mmHg 70%
    05:00 +22°C° 0 mm 1 m/S 735 mmHg 66%
    06:00 +23°C° 0 mm 1 m/S 735 mmHg 62%
    07:00 +25°C° 0 mm 1 m/S 735 mmHg 58%
    08:00 +26°C° 0 mm 1 m/S 735 mmHg 55%
    09:00 +28°C° 0 mm 2 m/S 735 mmHg 51%
    10:00 +29°C° 0 mm 2 m/S 735 mmHg 48%
    11:00 +29°C° 0 mm 3 m/S 735 mmHg 48%
    12:00 +30°C° 0 mm 3 m/S 735 mmHg 49%
    13:00 +30°C° 0 mm 4 m/S 735 mmHg 49%
    14:00 +30°C° 0 mm 3 m/S 735 mmHg 51%
    15:00 +29°C° 0 mm 3 m/S 735 mmHg 53%
    16:00 +29°C° 0 mm 3 m/S 735 mmHg 55%
    17:00 +27°C° 0 mm 3 m/S 735 mmHg 61%
    18:00 +26°C° 0 mm 2 m/S 735 mmHg 67%
    19:00 +24°C° 0 mm 2 m/S 735 mmHg 73%
    20:00 +23°C° 0 mm 2 m/S 735 mmHg 74%
    21:00 +23°C° 0 mm 2 m/S 735 mmHg 75%
    22:00 +21°C° 0 mm 2 m/S 736 mmHg 77%
    23:00 +21°C° 0 mm 2 m/S 736 mmHg 76%

    übermorgen, 20 Juli, Freitag

    Zeit Temperatur Niederschläge Wind Luftdruck Luftfeuchtigkeit
    00:00 +20°C° 0 mm 2 m/S 735 mmHg 75%
    01:00 +20°C° 0 mm 2 m/S 735 mmHg 75%
    02:00 +20°C° 0 mm 2 m/S 735 mmHg 75%
    03:00 +20°C° 0 mm 2 m/S 735 mmHg 75%
    04:00 +20°C° 0 mm 2 m/S 735 mmHg 76%
    05:00 +21°C° 0 mm 2 m/S 735 mmHg 72%
    06:00 +24°C° 0 mm 2 m/S 735 mmHg 69%
    07:00 +25°C° 0 mm 1 m/S 736 mmHg 65%
    08:00 +27°C° 0 mm 2 m/S 736 mmHg 60%
    09:00 +28°C° 0 mm 2 m/S 736 mmHg 55%
    10:00 +30°C° 0 mm 2 m/S 736 mmHg 50%
    11:00 +30°C° 0 mm 2 m/S 736 mmHg 50%
    12:00 +30°C° 0 mm 3 m/S 736 mmHg 50%
    13:00 +31°C° 0 mm 3 m/S 736 mmHg 50%
    14:00 +31°C° 0 mm 3 m/S 735 mmHg 50%
    15:00 +31°C° 0 mm 3 m/S 735 mmHg 51%
    16:00 +30°C° 0 mm 3 m/S 735 mmHg 52%
    17:00 +29°C° 0 mm 3 m/S 735 mmHg 58%
    18:00 +27°C° 0 mm 2 m/S 735 mmHg 63%
    19:00 +25°C° 0 mm 2 m/S 735 mmHg 69%
    20:00 +24°C° 0 mm 2 m/S 736 mmHg 71%
    21:00 +24°C° 0 mm 2 m/S 736 mmHg 72%
    22:00 +23°C° 0 mm 2 m/S 736 mmHg 73%
    23:00 +21°C° 0 mm 2 m/S 736 mmHg 74%

    21 Juli, Samstag

    Zeit Temperatur Niederschläge Wind Luftdruck Luftfeuchtigkeit
    00:00 +21°C° 0 mm 2 m/S 736 mmHg 74%
    01:00 +21°C° 0 mm 2 m/S 736 mmHg 74%
    02:00 +20°C° 0 mm 2 m/S 736 mmHg 75%
    03:00 +20°C° 0 mm 2 m/S 736 mmHg 75%
    04:00 +20°C° 0 mm 2 m/S 736 mmHg 75%
    05:00 +23°C° 0 mm 2 m/S 736 mmHg 70%
    06:00 +24°C° 0 mm 1 m/S 736 mmHg 65%
    07:00 +26°C° 0 mm 1 m/S 736 mmHg 60%
    08:00 +28°C° 0 mm 1 m/S 736 mmHg 54%
    09:00 +29°C° 0 mm 1 m/S 736 mmHg 48%
    10:00 +31°C° 0 mm 2 m/S 736 mmHg 42%
    11:00 +31°C° 0 mm 2 m/S 736 mmHg 42%
    12:00 +32°C° 0 mm 2 m/S 736 mmHg 41%
    13:00 +34°C° 0 mm 3 m/S 735 mmHg 40%
    14:00 +33°C° 0 mm 3 m/S 735 mmHg 42%
    15:00 +32°C° 0 mm 2 m/S 735 mmHg 44%
    16:00 +32°C° 0 mm 2 m/S 734 mmHg 45%
    17:00 +30°C° 0 mm 2 m/S 734 mmHg 52%
    18:00 +28°C° 0 mm 1 m/S 734 mmHg 58%
    19:00 +25°C° 0 mm 1 m/S 734 mmHg 65%
    20:00 +25°C° 0 mm 1 m/S 734 mmHg 65%
    21:00 +24°C° 0 mm 2 m/S 734 mmHg 64%
    22:00 +23°C° 0 mm 2 m/S 734 mmHg 64%
    23:00 +23°C° 0 mm 2 m/S 734 mmHg 62%

    22 Juli, Sonntag

    Zeit Temperatur Niederschläge Wind Luftdruck Luftfeuchtigkeit
    00:00 +23°C° 0 mm 2 m/S 734 mmHg 60%
    01:00 +23°C° 0 mm 2 m/S 734 mmHg 58%
    02:00 +23°C° 0 mm 2 m/S 733 mmHg 58%
    03:00 +23°C° 0 mm 2 m/S 733 mmHg 58%
    04:00 +21°C° 0 mm 2 m/S 733 mmHg 58%
    05:00 +24°C° 0 mm 2 m/S 733 mmHg 56%
    06:00 +26°C° 0 mm 2 m/S 732 mmHg 54%
    07:00 +28°C° 0 mm 2 m/S 732 mmHg 52%
    08:00 +29°C° 0 mm 3 m/S 732 mmHg 49%
    09:00 +30°C° 0 mm 3 m/S 732 mmHg 46%
    10:00 +32°C° 0 mm 4 m/S 731 mmHg 43%
    11:00 +32°C° 0,2 mm 4 m/S 731 mmHg 45%
    12:00 +32°C° 0,2 mm 4 m/S 731 mmHg 47%
    13:00 +32°C° 0,2 mm 4 m/S 730 mmHg 48%
    14:00 +31°C° 0,4 mm 3 m/S 730 mmHg 49%
    15:00 +30°C° 0,4 mm 3 m/S 730 mmHg 50%
    16:00 +30°C° 0,4 mm 2 m/S 730 mmHg 51%
    17:00 +28°C° 0,1 mm 2 m/S 730 mmHg 56%
    18:00 +27°C° 0,1 mm 1 m/S 730 mmHg 61%
    19:00 +25°C° 0,1 mm 1 m/S 730 mmHg 66%
    20:00 +24°C° 0 mm 1 m/S 730 mmHg 68%
    21:00 +23°C° 0 mm 2 m/S 730 mmHg 70%
    22:00 +21°C° 0 mm 2 m/S 731 mmHg 72%
    23:00 +21°C° 0 mm 2 m/S 731 mmHg 72%

    23 Juli, Montag

    Zeit Temperatur Niederschläge Wind Luftdruck Luftfeuchtigkeit
    00:00 +21°C° 0 mm 2 m/S 731 mmHg 72%
    01:00 +20°C° 0 mm 2 m/S 731 mmHg 72%
    02:00 +20°C° 0 mm 2 m/S 731 mmHg 73%
    03:00 +20°C° 0 mm 2 m/S 730 mmHg 73%
    04:00 +20°C° 0 mm 2 m/S 730 mmHg 74%
    05:00 +21°C° 0 mm 3 m/S 731 mmHg 70%
    06:00 +24°C° 0 mm 3 m/S 731 mmHg 67%
    07:00 +25°C° 0 mm 3 m/S 731 mmHg 64%
    08:00 +26°C° 0 mm 3 m/S 731 mmHg 60%
    09:00 +28°C° 0 mm 3 m/S 731 mmHg 56%
    10:00 +29°C° 0 mm 4 m/S 731 mmHg 52%
    11:00 +29°C° 0 mm 4 m/S 731 mmHg 52%
    12:00 +30°C° 0 mm 5 m/S 731 mmHg 51%
    13:00 +30°C° 0 mm 5 m/S 731 mmHg 51%
    14:00 +30°C° 0,1 mm 5 m/S 731 mmHg 52%
    15:00 +30°C° 0,1 mm 5 m/S 731 mmHg 53%
    16:00 +29°C° 0,1 mm 5 m/S 731 mmHg 54%
    17:00 +28°C° 0 mm 5 m/S 731 mmHg 60%
    18:00 +26°C° 0 mm 4 m/S 731 mmHg 65%
    19:00 +23°C° 0 mm 4 m/S 731 mmHg 70%
    20:00 +22°C° 0 mm 4 m/S 732 mmHg 72%
    21:00 +22°C° 0 mm 4 m/S 732 mmHg 75%
    22:00 +21°C° 0 mm 4 m/S 732 mmHg 77%
    23:00 +21°C° 0 mm 4 m/S 732 mmHg 78%
    Mehr zeigen